Location: Katowice
(50.2611°N, 19.0242°E)
Time: 18:24:49
(UTC+02:00)

ISS - Pass Details

Date: 25 March 2019
Orbit: 408 x 410 km, 51.6° (Epoch: 24 April)

Event Time Altitude Azimuth Distance (km) Brightness Sun altitude
Rises 18:37:44 0° 226° (SW) 2,328 0.6 -6.1°
Reaches altitude 10° 18:39:54 10° 217° (SW) 1,469 -0.6 -6.5°
Maximum altitude 18:42:57 35° 149° (SSE) 681 -3.0 -6.9°
Drops below altitude 10° 18:46:00 10° 82° (E) 1,475 -1.6 -7.4°
Enters shadow 18:46:15 - 81° (E) 1,575 -1.4 -7.5°
